Regional Weather Roundup
Issued by NWS

Home | Current Version | Previous Version | Text Only | Print | Product List | Glossary Off
Versions: 1 2 3 4 5 6 7 8 9 10 11 12 13 14 15 16 17 18 19 20 21 22 23 24 25 26 27 28 29 30 31 32 33 34 35 36 37 38 39 40 41 42 43 44 45 46 47 48 49 50

000
ASUS43 KFSD 260610
RWRSD

WEATHER ROUNDUP FOR SOUTH DAKOTA
NATIONAL WEATHER SERVICE SIOUX FALLS SD
1200 AM CST WED NOV 26 2014

NOTE: "FAIR" INDICATES FEW OR NO CLOUDS BELOW 12,000 FEET WITH NO
SIGNIFICANT WEATHER AND/OR OBSTRUCTIONS TO VISIBILITY.


SDZ001>005-009-010-012>017-260700-
NORTHWEST AND NORTH CENTRAL SOUTH DAKOTA

CITY           SKY/WX    TMP DP  RH WIND       PRES   REMARKS
BUFFALO          N/A     25  20  81 N15       30.04R WCI  13
FAITH            N/A     25  20  81 N29G36    30.02R WCI   8
MOBRIDGE       CLOUDY    27  23  85 N25G40    29.93R WCI  12
$$

SDZ012>016-024>037-041>051-057-063-072>074-260700-
SOUTHWEST AND SOUTH CENTRAL SOUTH DAKOTA

CITY           SKY/WX    TMP DP  RH WIND       PRES   REMARKS
RAPID CTY ARPT CLOUDY    31  23  72 N35G45    30.02R WCI  15
PIERRE         FLURRIES  34  29  82 NW30G39   29.87R WCI  20
CUSTER         LGT SNOW  23  16  74 N12G21    29.95R WCI  12
ELLSWORTH AFB  CLOUDY    31  24  75 N31G40    30.02R WCI  15
PHILIP         CLOUDY    33  24  69 NW31G40   29.96R WCI  19
PINE RIDGE     CLOUDY    34  24  67 NW9G22    30.00R WCI  27
SPEARFISH      CLOUDY    27  23  86 NW20G28   30.08R WCI  13
WINNER         CLOUDY    37  30  75 NW21G28   29.87R
$$

SDZ004>011-016>023-039-040-260700-
NORTHEAST SOUTH DAKOTA

CITY           SKY/WX    TMP DP  RH WIND       PRES   REMARKS
ABERDEEN       CLOUDY    31  28  89 NE15      29.87R WCI  20
WATERTOWN      CLOUDY    28  26  92 E5        29.82R WCI  23
SISSETON         N/A     23  22  96 NE12      29.93R WCI  12
$$

SDZ017-020-022-023-036>040-048>070-260700-
SOUTHEAST SOUTH DAKOTA

CITY           SKY/WX    TMP DP  RH WIND       PRES   REMARKS
SIOUX FALLS    LGT SNOW  31  30  96 SE5       29.81S FOG     WCI  26
HURON          CLOUDY    31  29  92 CALM      29.81R
CHAMBERLAIN    LGT RAIN  34  32  92 NW17G29   29.85R WCI  24
MITCHELL       CLOUDY    34  33  96 W7        29.83R WCI  28
YANKTON        CLOUDY    34  32  93 NW7       29.83R WCI  28
$$

ABBREVIATIONS USED IN REMARKS
   TC - TEMPERATURE IN CELSIUS
  WCI - WIND CHILL INDEX
   HX - HEAT INDEX
  VSB - VISIBILITY



USA.gov is the U.S. government's official web portal to all federal, state and local government web resources and services.